User: anonymous   Login
Location: Laporte
(40.6264°N, 105.1378°W)
Time: 22:00:53
(UTC+00:00)
Language:

Envisat - Orbit

View from above orbital plane
View from above orbital plane
View from above satellite
View from above satellite

Ground track
Ground track

The orbit data is extracted from the following two-line orbital elements,

1 27386U 02009A   22270.52984394  .00000129  00000-0  56165-4 0  9993
2 27386  98.1950 246.9033 0001223  86.1643  23.2359 14.38157311 78208
Epoch (UTC): 27 September 2022 12:42:58
Eccentricity: 0.0001223
inclination: 98.1950°
perigee height: 764 km
apogee height: 765 km
right ascension of ascending node: 246.9033°
argument of perigee: 86.1643°
revolutions per day: 14.38157311
mean anomaly at epoch: 23.2359°
orbit number at epoch: 7820

The dashed part of the orbit path shows where the satellite is in the earth's shadow,  

DLR